Погода Мыс Шведский

Погода Мыс Шведский : погода сейчас, прогноз погоды и архив. Всё, что Вы хотите узнать о погоде Мыс Шведский!

Хотите узнать прогноз погоды Мыс Шведский? Тогда Вам сюда: Погода Мыс Шведский

Поиск расширенной информации на нашем сайте:

Полезная информация: Смотрите информацию миксер китчен айд здесь.

Другие новости

Новости СМИ2

Главная страница сайта

Новости сайта

02.10.2013

Напоминаем, что на нашем новом сайте вы можете получить высокодетализированные прогнозы погоды по пунктам России, СНГ и мира (включающие важные для авиации метеовеличины, такие как направление и скорость ветра, видимость, явления погоды, количество и форма облачности, нижняя и верхняя граница облачности), а также ознакомиться с разнообразными материалами по авиационной метеорологии и подборкой полезных ссылок на эту тему.

Сайт Метеоцентр.Азия посвящён разработке технологий оптимизации авиаметеорологического обслуживания, включая проектирование и перспективное создание нескольких автоматизированных авиаметеорологических систем:
- система выпуска высокодетальных прогностических карт явлений погоды для нижнего воздушного пространства по России и ближнему зарубежью;
- система верификации прогнозов TAF (выпускаемых синоптиками официальных АМСГ РФ и ближнего зарубежья) и AUTOTAF (выпускаемых сайтом Метеоцентр.Азия) - выявление ошибок, онлайн-сопоставление с фактической погодой METAR, автоматическое внесение коррективов в прогнозы при резком отклонении фактической погоды от прогноза, подсчёт оправдываемости прогнозов по элементам и в целом;
- система обработки, анализа и отображения авиаметеорологической информации для применения провайдерами метеорологической информации.

Рекомендуем: Радуга бисера кроше наборы для вышивания бисером иконы.

Погода Мыс Шведский - сегодня

Время (UTC), дата Ветер
(°,м/с) 
Видим.   Явления Облачность Т
(°С)
Тd
(°С)
f(%) Тe
(°С)
Pmin
(гПа)
dP
(гПа)
Po
(мм)
O2
(г/м3)
Тmin Tmax R s Состояние
почвы
12 23.03.17 250 (З) 7{11}  4000 м  слаб. ливневой снег  10/10 300 м кучево-дожд. 
[Cb cap]
+0.3 -0.5 94 -4  998.5  -0.7  748  301           
15 23.03.17 240 (ЮЗ) 8-10{11}  10 км  в посл. час ливневой снег  9/9 300 м кучево-дожд. 
[Cb cap]
+0.4 -0.4 94 -4  999.5  749  301    +0.7     
18 23.03.17 240 (ЮЗ) 10 км  {ливн. осадки}  10/10 300 м 
[Sc]
+0.3 -0.5 94 -4  999.8  0.3  749  302           
21 23.03.17 230 (ЮЗ) 8{10}  10 км    9/4 600 м верхняя 
[Sc|Cs]
-0.5 -1.4 94 -5  999.1  -0.7  749  302           
00 24.03.17 210 (ЮЗ) 7{10}  10 км    9/5 600 м верхняя 
[Sc|Cs]
-1.6 -2.7 92 -6  998.5  -0.6  748  304           
06 24.03.17 230 (ЮЗ) 8{11}  10 км    9/9 600 м 
[Sc]
-0.5 -1.1 96 -5  997.2  -0.5  747  302           
09 24.03.17 230 (ЮЗ) 8-10{12}  10 км  в посл. час ливневой снег  9/9 300 м кучево-дожд. 
[Cb cap]
-0.4 -1.9 90 -5  997.4  0.2  747  302           
12 24.03.17 230 (ЮЗ) 9-11{12}  4000 м  слаб. ливневой снег  9/9 300 м кучево-дожд. 
[Cb cap]
-0.5 -2 90 -5  997.2  -0.2  747  302           
15 24.03.17 230 (ЮЗ) 11-13{15}  0200 м  слаб. ливневой снег  10/10 300 м кучево-дожд. 
[Cb cap]
-1 -1.7 95 -6  996.3  -0.9  747  302    +0  0.6     
18 24.03.17 250 (З) 11-13{15}  0200 м  слаб. ливневой снег  10/10 300 м кучево-дожд. 
[Cb cap]
-1.1 -1.5 97 -7  995.7  -0.6  746  302           
21 24.03.17 260 (З) 10-12{14}  0200 м  слаб. ливневой снег  10/10 300 м кучево-дожд. 
[Cb cap]
-1.4 -2.2 94 -7  995.6  -0.1  746  302           
00 25.03.17 260 (З) 7{13}  4000 м  слаб. снег{ливн. осадки}  10/10 300 м 
[Frnb|Ns]
-1.5 -2 96 -6  995.7  0.1  746  303           
06 25.03.17 300 (СЗ) 5{11}  10 км  {снег}  9/9 600 м 
[Sc]
-1.2 -1.6 97 -4  997.4  0.9  747  303           
09 25.03.17 280 (З) 10 км    10/10 300 м 
[Sc]
-0.7 -1.4 95 -3  999.2  1.8  749  303           
12 25.03.17 350 (С) 7{10}  4000 м  слаб. ливневой снег  9/9 300 м кучево-дожд. 
[Cb cap]
-1.4 -2.2 94 -6  1001.3  2.1  750  304           
15 25.03.17 280 (З) 20000 м  {ливн. осадки}  4/1 600 м верхняя 
[Sc|Cs]
-6.5 -7.3 94 -10  1002.7  1.3  751  311    -0.5  0.4     
18 25.03.17 290 (З) 9{11}  10 км  позёмок{ливн. осадки}  8/5 300 м верхняя 
[Sc|Cs]
-3.5 -4.3 94 -9  1002.7  751  307           
21 25.03.17 280 (З) 13-16{17}  0200 м  слаб. ливневой снег  10/10 300 м кучево-дожд. 
[Cb cap]
-2 -2.6 96 -8  1001.6  -1  751  305           
00 26.03.17 280 (З) 11-14{17}  0200 м  сильная метель{ливн. осадки}  9/6 300 м кучево-дожд., верхняя 
[Cb cap|Cs]
-2.7 -3.7 93 -9  1001.8  0.1  751  306           
06 26.03.17 250 (З) 10-12{14}  0200 м  сильная метель  9/9 300 м 
[Sc]
-4.2 -5.4 91 -10  1000.5  -1.3  750  307  -4.4         
09 26.03.17 230 (ЮЗ) 12-14{15}  0200 м  сильная метель  3/1 600 м верхняя 
[Sc|Cs]
-4.3 -5.5 91 -11  998.5  -2  748  307           
12 26.03.17 220 (ЮЗ) 10-12{16}  0200 м  сильная метель  4/1 600 м средняя, верхняя 
[Sc|Ac trans|Cs]
-2.5 -4.1 89 -8  996.4  -2.1  747  304           
15 26.03.17 210 (ЮЗ) 11-13{16}  0200 м  сильная метель  10/10 300 м 
[Sc]
-2.4 -4.3 87 -8  993.4  -2.9  744  303    -2.3       
18 26.03.17 210 (ЮЗ) 7{14}  10 км  позёмок  9/9 600 м 
[Sc]
-2.8 -5.1 84 -7  991.1  -2.3  743  303           
21 26.03.17 190 (Ю) 8-10{11}  10 км  позёмок  9/3 600 м средняя, верхняя 
[Sc|Ac trans|Cs]
-4.1 -6.4 84 -9  988.8  -2.3  741  304           
Время (UTC), дата Ветер
(°,м/с) 
Видим.   Явления Облачность Т
(°С)
Тd
(°С)
f(%) Тe
(°С)
Pmin
(гПа)
dP
(гПа)
Po
(мм)
O2
(г/м3)
Тmin Tmax R s Состояние
почвы

Для получения пояснительной информации подведите курсор к названию столбца.

ПОГОДА Мыс Шведский - архив

Всё, что Вы хотите узнать о погоде Мыс Шведский - удобно и подробно!

Выберите нужную дату (начиная с 1 января 2015* года) и нажмите кнопку "Найти".
Будут отображены архивные сводки погоды по пункту Мыс Шведский, начиная с указанной даты.


Отображать данные в формате CSV (для использования в таблицах Excel)


Внимание! Наш архив погоды предназначен исключительно для личного некоммерческого использования в познавательных целях. Если Вам необходимы официальные справки о состоянии погоды (для производственных, юридических, коммерческих и т.п. целей), обращайтесь в органы Росгидромета.

*Примечание: данная дата относится к архиву по метеостанциям СССР (Россия, СНГ, Балтия).
Архив по метеостанциям Зарубежной Европы и Азии (кроме Китая) хранится 10 дней, по другим регионам земного шара (Китай, Африка, Америка, Австралия, Океания) - 1 день.

Мыс Шведский - район местоположения метеостанции


Название, широта, долгота, высота метеостанции:
Мыс Шведский 68.6°ш. 56.6°д. 4 м над ур. моря [Российская Федерация]

Дополнительная информация

В oтличие oт бoльшинства пoгoдных сайтoв мы публикуем пoдрoбную метеoинфoрмацию в детальнoм прoфессиoнальнoм фoрмате.

Характеристики температуры и влажнoсти вoздуха измеряются на высoте 2 м в тени вдали oт зданий и деревьев.
Скoрoсть ветра измеряется на высoте 10 м (на урoвне рoста челoвека скoрoсть ветра ниже в 1.5-2 раза). Если метеoстанция нахoдится в гoрoде или в лесу, тo скoрoсть ветра занижена на 2-4 м/с пo сравнению с oткрытым местoм. Скoрoсть ветра над акватoриями крупных рек и oзёр, а также на вершинах хoлмoв на 2-5 м/с выше, чем в oбычных услoвиях.
Атмoсфернoе давление в разных тoчках местнoсти мoжет значительнo oтличаться oт давления на метеoстанции, в зависимoсти oт услoвий рельефа (при пoдъёме на 10 м давление пoнижается примернo на 1 мм рт.ст.).